Flag for U.S.A. Weather past 2 weeks in Ann Arbor, Michigan, U.S.A.

Now
51 °F

Sunny.


Feels Like: 45 °F
Forecast: 36 / 54 °F
Wind: 22 mph from Northwest

Location: Ann Arbor Municipal Airport

Current Time: Mar 30, 2015 at 12:37:39 PM

Latest Report: Mar 30, 2015 at 11:53 AM


Visibility: 10 mi

Pressure: 29.94 "Hg

Humidity: 35%

Dew point: 24 °F

Location of Ann ArborLocation

Historic Weather in Ann Arbor — Graph

°F

Ann Arbor temperature yesterday

Maximum temperature yesterday: 44 °F (at 3:53 PM)
Minimum temperature yesterday: 13 °F (at 3:53 AM)
Average temperature yesterday: 30 °F

Past Weeks' High & Low Weather Summary

 TemperatureHumidityPressure
High64 °F (Mar 16, 3:53 PM)96% (Mar 16, 6:53 AM)30.37 "Hg (Mar 16, 6:53 AM)
Low13 °F (Mar 29, 3:53 AM)24% (Mar 17, 11:53 AM)29.73 "Hg (Mar 16, 11:53 PM)
Average35 °F60%30.13 "Hg
* Reported Mar 15 10:53 AM — Mar 30 10:53 AM, Ann Arbor, Weather by CustomWeather, © 2015

Note: Actual official high and low records may vary slightly from our data, if they occured in-between our weather recording intervals... More about our weather records

Advertising

Ann Arbor weather history for previous 24 hours

 ConditionsComfort  
Time TempWeatherWind HumidityBarometerVisibility
10:53 AM
Mon, Mar 30
48 °FSunny.18 mph43%29.94 "Hg10 mi
9:53 AM44 °FSunny.17 mph53%29.92 "Hg10 mi
8:53 AM40 °FSunny.15 mph65%29.92 "Hg10 mi
7:53 AM37 °FClear.13 mph73%29.90 "Hg10 mi
6:53 AM36 °FPassing clouds.9 mph75%29.88 "Hg10 mi
5:53 AM38 °FPassing clouds.13 mph76%29.85 "Hg10 mi
4:53 AM39 °FPassing clouds.14 mph73%29.83 "Hg10 mi
3:53 AM40 °FOvercast.14 mph70%29.82 "Hg10 mi
3:02 AM41 °FMostly cloudy.16 mph67%29.80 "Hg10 mi
2:53 AM41 °FMostly cloudy.18 mph67%29.81 "Hg10 mi
1:53 AM42 °FMostly cloudy.16 mph68%29.79 "Hg10 mi
12:53 AM42 °FOvercast.24 mph73%29.77 "Hg10 mi
11:53 PM
Sun, Mar 29
39 °FOvercast.15 mph76%29.76 "Hg10 mi
10:53 PM40 °FOvercast.18 mph65%29.78 "Hg10 mi
9:53 PM40 °FOvercast.15 mph55%29.79 "Hg10 mi
8:53 PM40 °FOvercast.15 mph53%29.82 "Hg10 mi
7:53 PM39 °FOvercast.15 mph55%29.85 "Hg10 mi
6:53 PM39 °FOvercast.15 mph57%29.88 "Hg10 mi
5:53 PM39 °FLight rain. More clouds than sun.22 mph55%29.91 "Hg9 mi
4:53 PM42 °FMostly cloudy.20 mph35%29.89 "Hg10 mi
3:53 PM44 °FPassing clouds.23 mph37%29.94 "Hg10 mi
2:53 PM42 °FSunny.23 mph36%30.02 "Hg10 mi
1:53 PM43 °FSunny.20 mph37%30.08 "Hg10 mi
12:53 PM40 °FSunny.16 mph43%30.14 "Hg10 mi
Weather by CustomWeather, © 2015

See weather overviewHow to use our weather pages